TimeEDT,TemperatureF,Dew PointF,Humidity,Sea Level PressureIn,VisibilityMPH,Wind Direction,Wind SpeedMPH,Gust SpeedMPH,PrecipitationIn,Events,Conditions,WindDirDegrees,DateUTC
12:53 AM,71.1,62.1,73,29.89,10.0,South,16.1,-,N/A,,Mostly Cloudy,170,2013-06-06 04:53:00
1:19 AM,69.8,64.4,83,29.91,10.0,South,11.5,-,0.01,Rain,Light Rain,170,2013-06-06 05:19:00
1:53 AM,68.0,64.0,87,29.89,10.0,South,9.2,-,0.01,,Overcast,170,2013-06-06 05:53:00
2:48 AM,66.2,64.4,94,29.90,2.5,South,6.9,-,0.08,Rain,Heavy Rain,180,2013-06-06 06:48:00
2:53 AM,66.9,64.0,90,29.88,2.0,South,5.8,-,0.08,Rain,Light Rain,180,2013-06-06 06:53:00
3:01 AM,66.2,64.4,94,29.89,6.0,SSE,8.1,-,0.01,Rain,Light Rain,160,2013-06-06 07:01:00
3:17 AM,66.2,64.4,94,29.89,8.0,SSE,5.8,-,0.02,Rain,Light Rain,160,2013-06-06 07:17:00
3:53 AM,66.0,64.0,93,29.85,2.5,SSE,8.1,-,0.08,Rain,Heavy Rain,160,2013-06-06 07:53:00
4:00 AM,64.4,64.4,100,29.87,3.0,SSE,6.9,-,0.01,Rain,Light Rain,150,2013-06-06 08:00:00
4:27 AM,64.4,64.4,100,29.87,5.0,SSE,4.6,-,0.01,Rain,Light Rain,150,2013-06-06 08:27:00
4:53 AM,64.9,64.0,97,29.84,4.0,SSE,6.9,-,0.03,Rain,Light Rain,160,2013-06-06 08:53:00
5:00 AM,64.4,64.4,100,29.86,5.0,SSE,6.9,-,0.00,Rain,Light Rain,160,2013-06-06 09:00:00
5:38 AM,64.4,64.4,100,29.86,3.0,SSE,6.9,-,0.03,Rain,Rain,160,2013-06-06 09:38:00
5:40 AM,64.4,64.4,100,29.86,2.5,SSE,8.1,-,0.04,Rain,Rain,160,2013-06-06 09:40:00
5:50 AM,64.4,64.4,100,29.86,3.0,SSE,6.9,-,0.07,Rain,Rain,160,2013-06-06 09:50:00
5:53 AM,64.9,64.0,97,29.84,4.0,SSE,8.1,-,0.08,Rain,Rain,160,2013-06-06 09:53:00
6:53 AM,64.9,64.0,97,29.84,4.0,SSE,8.1,-,0.06,Rain,Light Rain,160,2013-06-06 10:53:00
7:24 AM,64.4,64.4,100,29.85,6.0,South,6.9,-,0.00,,Overcast,170,2013-06-06 11:24:00
7:53 AM,66.0,64.0,93,29.83,6.0,South,9.2,-,0.00,,Overcast,170,2013-06-06 11:53:00
8:02 AM,66.2,64.4,94,29.84,6.0,South,6.9,-,N/A,,Overcast,170,2013-06-06 12:02:00
8:38 AM,66.2,64.4,94,29.84,6.0,SSW,6.9,-,N/A,,Overcast,200,2013-06-06 12:38:00
8:53 AM,66.0,64.0,93,29.82,5.0,South,5.8,-,N/A,,Overcast,170,2013-06-06 12:53:00
9:39 AM,66.2,64.4,94,29.83,6.0,SSE,6.9,-,N/A,,Overcast,160,2013-06-06 13:39:00
9:53 AM,66.9,64.0,90,29.82,7.0,South,6.9,-,N/A,,Overcast,170,2013-06-06 13:53:00
10:53 AM,68.0,64.0,87,29.81,7.0,South,8.1,-,N/A,,Overcast,180,2013-06-06 14:53:00
11:53 AM,69.1,64.0,84,29.81,9.0,South,5.8,-,N/A,,Overcast,180,2013-06-06 15:53:00
12:53 PM,70.0,64.9,84,29.80,8.0,SSW,4.6,-,N/A,,Mostly Cloudy,210,2013-06-06 16:53:00
1:35 PM,69.8,64.4,83,29.81,6.0,SSW,4.6,-,0.00,Rain,Light Rain,210,2013-06-06 17:35:00
1:53 PM,69.1,64.9,87,29.80,3.0,SW,3.5,-,0.02,Rain,Light Rain,230,2013-06-06 17:53:00
2:18 PM,69.8,66.2,88,29.80,2.0,WNW,3.5,-,0.04,Rain,Rain,290,2013-06-06 18:18:00
2:42 PM,69.8,66.2,88,29.80,3.0,West,3.5,-,0.07,Rain,Light Rain,280,2013-06-06 18:42:00
2:53 PM,69.1,66.9,93,29.79,1.5,West,10.4,-,0.12,Rain,Rain,280,2013-06-06 18:53:00
2:56 PM,68.0,66.2,94,29.80,0.8,NW,8.1,-,0.07,Rain,Heavy Rain,310,2013-06-06 18:56:00
3:04 PM,66.2,64.4,94,29.80,1.0,West,5.8,-,0.12,Rain,Rain,260,2013-06-06 19:04:00
3:16 PM,66.2,64.4,94,29.80,2.0,Calm,Calm,-,0.14,Rain,Light Rain,0,2013-06-06 19:16:00
3:31 PM,66.2,64.4,94,29.78,4.0,North,5.8,-,0.15,Rain,Light Rain,350,2013-06-06 19:31:00
3:53 PM,66.9,64.9,93,29.77,3.0,North,4.6,-,0.17,Rain,Light Rain,10,2013-06-06 19:53:00
4:12 PM,68.0,66.2,94,29.79,6.0,NNE,3.5,-,0.00,Rain,Light Rain,20,2013-06-06 20:12:00
4:41 PM,68.0,64.4,88,29.79,7.0,ENE,4.6,-,0.01,Rain,Light Rain,60,2013-06-06 20:41:00
4:53 PM,68.0,64.9,90,29.77,7.0,ENE,3.5,-,0.01,Rain,Light Rain,60,2013-06-06 20:53:00
5:00 PM,68.0,64.4,88,29.78,7.0,NE,3.5,-,0.00,,Overcast,40,2013-06-06 21:00:00
5:41 PM,69.8,64.4,83,29.78,6.0,North,4.6,-,0.00,,Overcast,360,2013-06-06 21:41:00
5:53 PM,69.1,66.0,90,29.76,6.0,ENE,4.6,-,0.00,,Mostly Cloudy,70,2013-06-06 21:53:00
6:02 PM,69.8,64.4,83,29.78,6.0,North,4.6,-,N/A,,Mostly Cloudy,10,2013-06-06 22:02:00
6:14 PM,69.8,64.4,83,29.79,6.0,North,3.5,-,N/A,,Mostly Cloudy,360,2013-06-06 22:14:00
6:24 PM,69.8,66.2,88,29.78,5.0,Calm,Calm,-,N/A,,Overcast,0,2013-06-06 22:24:00
6:29 PM,69.8,64.4,83,29.78,5.0,Calm,Calm,-,N/A,,Mostly Cloudy,0,2013-06-06 22:29:00
6:37 PM,69.8,64.4,83,29.78,5.0,North,5.8,-,N/A,,Mostly Cloudy,360,2013-06-06 22:37:00
6:53 PM,69.1,64.9,87,29.77,5.0,NNE,3.5,-,N/A,,Scattered Clouds,30,2013-06-06 22:53:00
7:22 PM,68.0,64.4,88,29.80,6.0,North,3.5,-,N/A,,Overcast,350,2013-06-06 23:22:00
7:33 PM,68.0,64.4,88,29.80,9.0,North,5.8,-,N/A,,Overcast,350,2013-06-06 23:33:00
7:45 PM,66.2,62.6,88,29.79,10.0,North,5.8,-,N/A,,Overcast,350,2013-06-06 23:45:00
7:53 PM,66.9,63.0,87,29.78,10.0,North,4.6,-,N/A,,Overcast,350,2013-06-06 23:53:00
8:53 PM,66.0,62.1,87,29.79,10.0,NNW,8.1,-,N/A,,Overcast,340,2013-06-07 00:53:00
9:14 PM,64.4,60.8,88,29.81,10.0,North,8.1,-,N/A,,Mostly Cloudy,360,2013-06-07 01:14:00
9:26 PM,64.4,60.8,88,29.81,10.0,Variable,4.6,-,N/A,,Overcast,0,2013-06-07 01:26:00
9:53 PM,64.0,60.1,87,29.81,7.0,North,8.1,-,N/A,,Overcast,350,2013-06-07 01:53:00
10:53 PM,62.1,60.1,93,29.82,5.0,North,4.6,-,N/A,,Overcast,350,2013-06-07 02:53:00
11:28 PM,60.8,59.0,94,29.83,3.0,North,6.9,-,N/A,,Overcast,10,2013-06-07 03:28:00
11:53 PM,60.1,57.9,93,29.82,3.0,North,5.8,-,N/A,,Overcast,350,2013-06-07 03:53:00